Location: Cassagne
(43.1218°N, 0.9901°E)
Time: 03:18:50
(UTC+00:00)

Daily predictions for brighter satellites

Satellite Brightness Start Highest point End
(mag) Time Altitude Azimuth Time Altitude Azimuth Time Altitude Azimuth
USA 215 4.4 03:16:01 10° NE 03:19:59 34° NNE 03:19:59 34° NNE
CZ-4C R/B 4.0 03:29:40 25° NNE 03:29:40 25° NNE 03:32:14 10° NNE
USA 229 DEB 4.1 03:35:49 67° E 03:35:49 67° E 03:42:46 10° SE
USA 229 4.1 03:35:52 67° E 03:35:52 67° E 03:42:51 10° SE
ATLAS CENTAUR R/B 3.9 03:43:09 21° NE 03:43:09 21° NE 03:44:47 10° NE
Cosmos 1934 Rocket 4.4 03:47:19 10° N 03:53:34 62° E 03:59:50 10° SSE
Cosmos 2237 Rocket 3.7 04:03:02 26° N 04:03:02 26° N 04:05:37 10° NNE
Cosmos 2251 Rocket 4.2 04:01:11 51° ENE 04:01:11 51° ENE 04:05:44 10° NNE
Cosmos 2219 Rocket 4.4 04:14:45 13° NNW 04:14:45 13° NNW 04:15:40 10° N
Cosmos 1605 Rocket 4.5 04:07:34 10° N 04:13:44 57° ENE 04:19:46 10° SSE
GEOS 3 Rocket 3.7 04:15:39 10° NE 04:20:58 73° SE 04:21:26 68° SSE
ADEOS 4.4 04:21:36 10° N 04:25:00 40° N 04:25:00 40° N
Meteor 2-10 Rocket 3.4 04:27:19 81° NNW 04:27:19 81° NNW 04:32:18 10° N
STARLINK-1062 4.4 04:36:09 44° SE 04:36:09 44° SE 04:39:04 10° SE
Cosmos 1943 Rocket 3.0 04:31:54 10° NNW 04:37:14 47° ENE 04:42:31 10° SE
Cosmos 2297 3.5 04:37:32 68° W 04:37:48 69° WSW 04:43:23 10° SSE
NOSS 3-1 (C) 4.1 04:36:43 43° WNW 04:39:09 57° WSW 04:47:36 10° SSE
STARLINK-1053 4.2 04:40:54 48° SSE 04:40:54 48° SSE 04:44:00 10° SE
Lacrosse 5 2.8 04:38:34 30° NNW 04:40:28 43° NE 04:45:18 10° ESE
SL-16 R/B 2.1 04:41:35 60° WNW 04:41:50 61° WNW 04:47:29 10° NNE
Cosmos 292 Rocket 3.6 04:43:28 52° NNW 04:44:39 88° WSW 04:49:23 10° SSE
STARLINK-1061 4.1 04:45:43 51° SSE 04:45:43 51° SSE 04:48:58 10° SE
Cosmos 1339 Rocket 4.3 04:41:25 10° SSW 04:47:28 78° W 04:53:36 10° N
CZ-2C R/B 2.6 04:42:58 10° N 04:47:46 53° WNW 04:47:46 53° WNW
STARLINK-1067 4.0 04:50:28 52° S 04:50:28 52° S 04:53:53 10° SE
SKYMED 2 4.2 04:48:47 10° SSE 04:53:01 56° ENE 04:57:17 10° N
STARLINK-1058 3.9 04:55:15 51° SSW 04:55:15 51° SSW 04:58:49 10° SE
Cosmos 2369 Rocket 2.9 04:52:10 10° NNW 04:57:48 55° ENE 05:03:23 10° SE
Cosmos 1603 4.4 04:52:28 10° S 04:58:00 54° ESE 05:03:34 10° NNE
FENGYUN 3A 4.3 04:53:01 10° NNE 04:58:24 57° E 05:03:43 10° S
STARLINK-1043 3.9 05:00:01 49° SSW 05:00:01 49° SSW 05:03:44 10° SSE
NOSS 2-1 (E) 4.3 05:01:57 28° N 05:01:57 28° N 05:04:24 10° NNE
Cosmos 1500 Rocket 3.9 04:58:19 10° N 05:02:46 68° E 05:07:08 10° SSE
Okean O Rocket 3.8 04:59:56 10° NE 05:03:41 27° E 05:07:22 10° SSE
STARLINK-1065 4.0 05:04:25 46° SW 05:04:25 46° SW 05:08:13 10° SSE
Cosmos 1943 4.2 04:59:54 10° S 05:05:14 47° ESE 05:10:37 10° NE
BREEZE-M DEB (TANK) 4.2 05:04:51 41° WNW 05:06:06 56° N 05:15:59 10° ENE
Meteor 2-3 Rocket 3.7 05:01:01 10° NNW 05:06:47 81° W 05:12:33 10° S
STARLINK-1063 4.0 05:09:35 42° SW 05:09:39 42° SW 05:13:33 10° SSE
Meteor PRIRODA 3.5 05:08:08 10° N 05:11:51 71° WNW 05:14:07 22° SSW
STARLINK-1124 4.0 05:11:29 30° S 05:12:15 36° SE 05:14:59 10° ENE
STARLINK-1066 4.5 05:11:32 22° S 05:12:37 29° SE 05:15:13 10° ENE
STARLINK-1081 4.5 05:11:45 22° S 05:12:50 29° SE 05:15:27 10° ENE
STARLINK-1069 4.4 05:12:11 22° S 05:13:17 30° SE 05:15:54 10° ENE
STARLINK-1085 4.4 05:12:23 22° S 05:13:30 30° SE 05:16:07 10° ENE
STARLINK-1086 4.4 05:12:37 22° S 05:13:43 30° SE 05:16:20 10° ENE
STARLINK-1095 4.4 05:12:49 22° S 05:13:57 30° SE 05:16:34 10° ENE
STARLINK-1077 4.4 05:13:03 22° S 05:14:11 30° SE 05:16:48 10° ENE
Cosmos 1743 Rocket 3.4 05:09:52 10° N 05:14:13 83° W 05:18:32 10° S
STARLINK-1075 4.4 05:13:16 22° S 05:14:25 30° SE 05:17:03 10° ENE
STARLINK-1064 4.2 05:14:22 38° SW 05:14:36 38° SW 05:18:26 10° SSE
STARLINK-1093 4.4 05:13:29 22° S 05:14:37 31° SE 05:17:16 10° ENE
STARLINK-1074 4.4 05:13:41 22° S 05:14:51 31° SE 05:17:30 10° ENE
STARLINK-1087 4.4 05:13:55 22° S 05:15:04 31° SE 05:17:43 10° ENE
STARLINK-1088 4.4 05:14:08 22° S 05:15:17 31° SE 05:17:56 10° ENE
STARLINK-1115 4.3 05:14:19 22° S 05:15:30 31° SE 05:18:09 10° ENE
STARLINK-1076 4.3 05:14:32 22° S 05:15:44 31° SE 05:18:23 10° ENE
STARLINK-1092 4.3 05:14:46 22° S 05:15:58 32° SE 05:18:37 10° ENE
CZ-4C R/B 3.8 05:14:51 17° NW 05:16:09 19° NNW 05:20:27 10° NNE
STARLINK-1080 4.3 05:15:00 22° S 05:16:12 32° SE 05:18:51 10° ENE
STARLINK-1090 4.3 05:15:12 22° S 05:16:24 32° SE 05:19:04 10° ENE
STARLINK-1089 4.3 05:15:24 22° S 05:16:37 32° SE 05:19:17 10° ENE
STARLINK-1107 4.3 05:15:38 22° S 05:16:51 32° SE 05:19:31 10° ENE
STARLINK-1109 4.3 05:15:50 22° S 05:17:05 32° SE 05:19:45 10° ENE
Cosmos 1484 Rocket 2.8 05:13:14 10° N 05:17:06 57° WNW 05:20:21 14° SSW
STARLINK-1091 4.3 05:16:04 22° S 05:17:19 33° SE 05:20:00 10° ENE
STARLINK-1072 4.3 05:16:16 22° S 05:17:32 33° SE 05:20:13 10° ENE
STARLINK-1096 4.2 05:16:31 22° S 05:17:45 33° SE 05:20:26 10° ENE
STARLINK-1079 4.2 05:16:42 22° S 05:17:59 33° SE 05:20:40 10° ENE
BREEZE M DEB (TANK) 3.9 05:08:49 17° WNW 05:18:10 52° SW 05:22:06 10° SSE
STARLINK-1116 4.2 05:16:56 22° S 05:18:12 33° SE 05:20:54 10° ENE
CZ-4B R/B 3.0 05:15:03 10° N 05:18:23 41° WNW 05:18:23 41° WNW
STARLINK-1094 4.2 05:17:22 22° S 05:18:39 34° SE 05:21:20 10° ENE
STARLINK-1117 4.2 05:17:34 22° S 05:18:52 34° SE 05:21:34 10° ENE
STARLINK-1078 4.2 05:17:48 22° S 05:19:06 34° SE 05:21:48 10° ENE
STARLINK-1108 4.2 05:18:00 22° S 05:19:19 34° SE 05:22:01 10° ENE
ATLAS CENTAUR R/B 2.8 05:19:22 25° NW 05:19:31 25° NW 05:23:15 10° NNE
STARLINK-1071 4.2 05:18:14 22° S 05:19:32 34° SE 05:22:14 10° ENE
STARLINK-1041 4.3 05:19:09 34° WSW 05:19:33 35° SW 05:23:19 10° SSE
STARLINK-1110 4.1 05:18:27 22° S 05:19:46 35° SE 05:22:29 10° ENE
STARLINK-1122 4.1 05:18:53 22° S 05:20:14 35° SE 05:22:56 10° ENE
STARLINK-1126 4.1 05:19:06 22° S 05:20:26 35° SE 05:23:09 10° ENE
STARLINK-1082 4.1 05:19:18 22° S 05:20:40 35° SE 05:23:23 10° ENE
STARLINK-1100 4.1 05:19:31 22° S 05:20:53 36° SE 05:23:37 10° ENE
ALOS 2.2 05:16:19 10° NNE 05:21:01 86° WNW 05:25:40 10° SSW
STARLINK-1083 4.1 05:19:44 22° S 05:21:07 36° SE 05:23:50 10° ENE
STARLINK-1125 4.1 05:19:58 22° S 05:21:21 36° SE 05:24:04 10° ENE
Cosmos 1459 Rocket 4.2 05:15:42 10° N 05:21:52 72° E 05:28:06 10° SSE
H-2A R/B 3.1 05:19:29 10° N 05:23:30 37° WNW 05:25:10 27° WSW
STARLINK-1038 4.4 05:23:55 30° WSW 05:24:28 32° SW 05:28:09 10° SSE
Cosmos 1842 Rocket 3.8 05:21:20 10° SSW 05:25:37 47° WNW 05:29:58 10° N
Cosmos 614 Rocket 3.9 05:20:39 10° SSW 05:25:47 88° WNW 05:31:01 10° NNE
STARLINK-1118 3.5 05:25:58 26° SSW 05:26:59 41° SE 05:29:29 10° ENE
PSLV R/B 3.6 05:25:38 10° N 05:29:20 62° WNW 05:33:03 10° SSW
Meteor 1-27 4.2 05:28:10 10° SSW 05:33:37 57° WNW 05:39:06 10° N
Cosmos 1802 Rocket 4.3 05:28:44 10° N 05:35:12 75° E 05:41:36 10° SSE
Cosmos 1633 2.8 05:31:46 10° N 05:35:25 71° E 05:39:01 10° SSE
PAYLOAD B 4.3 05:30:48 10° NNE 05:36:25 82° ESE 05:41:58 10° SSW
Shenzhou-11 Module 3.5 05:37:10 15° SSW 05:38:46 25° SSE 05:41:03 10° E
Aureole 2 Rocket 2.1 05:38:01 10° NNW 05:41:01 82° ENE 05:44:09 10° SSE
COSMO-SKYMED 1 2.9 05:36:55 10° S 05:41:03 43° W 05:45:13 10° NNW
NOAA 6 4.2 05:38:31 10° NNE 05:43:43 80° ESE 05:48:52 10° S
Meteor 1-31 Rocket 4.3 05:41:43 10° NNW 05:43:49 17° NW 05:43:49 17° NW
USA 116 3.1 05:43:50 10° S 05:47:04 62° WSW 05:50:10 10° NNW
STARLINK-1113 4.4 05:44:49 10° SSW 05:48:37 49° SE 05:52:27 10° ENE
Cosmos 921 Rocket 3.0 05:44:56 10° NNW 05:49:23 82° WSW 05:53:44 10° SSE
STARLINK-1111 4.4 05:46:51 10° SSW 05:50:43 50° SE 05:54:35 10° ENE
Cosmos 1633 Rocket 4.5 05:46:46 10° N 05:50:56 41° ENE 05:55:04 10° SSE
STARLINK-1119 4.2 05:49:04 10° SW 05:52:55 53° SE 05:56:46 10° ENE
STARLINK-1073 4.2 05:51:20 10° SW 05:55:14 55° SE 05:59:10 10° ENE
STARLINK-1114 4.1 05:53:20 10° SW 05:57:12 58° SE 06:01:06 10° ENE
Cosmos 2221 3.4 05:53:39 10° SW 05:57:18 27° WNW 06:01:00 10° NNW
Cosmos 1400 Rocket 3.4 05:54:00 10° S 05:57:56 64° E 06:01:58 10° NNE
BREEZE-M DEB (TANK) 4.4 05:54:48 12° WNW 05:59:26 88° NNE 06:20:09 10° ESE
STARLINK-1121 4.1 05:55:51 10° SW 05:59:47 60° SE 06:03:44 10° ENE
Cosmos 1869 3.8 05:57:16 10° SW 06:00:58 36° WNW 06:04:41 10° N
STARLINK-1130 (DARKSAT) 3.9 05:57:37 10° SW 06:01:32 63° SE 06:05:27 10° ENE
SMAP 4.1 05:57:44 10° NNE 06:02:18 52° E 06:06:50 10° S
STARLINK-1106 3.9 06:00:25 10° SW 06:04:22 66° SE 06:08:21 10° ENE
STARLINK-1084 3.8 06:01:57 10° SW 06:05:52 69° SE 06:09:49 10° ENE
Cosmos 2016 Rocket 4.0 06:00:08 10° N 06:06:22 77° W 06:12:39 10° S
ATLAS 2AS CENTAUR R/B 4.4 06:01:45 10° NNW 06:08:24 30° NNE 06:14:37 10° E
STARLINK-1112 3.8 06:05:03 10° SW 06:09:02 72° SE 06:13:02 10° ENE
Helios 1A Rocket 2.9 06:06:46 10° NNE 06:10:55 83° WNW 06:15:03 10° SSW
Cosmos 1238 Rocket 3.9 06:13:40 10° NNW 06:19:43 55° W 06:24:53 10° SSW
Cosmos 1943 Rocket 3.1 06:16:15 10° NW 06:20:39 25° WSW 06:25:01 10° SSW
Lacrosse 5 2.5 06:18:42 10° WNW 06:23:25 39° SW 06:28:06 10° SSE
Cosmos 2233 Rocket 4.3 06:18:51 10° N 06:25:08 78° E 06:31:26 10° S
ADEOS Rocket 3.3 06:21:59 10° S 06:27:57 56° W 06:34:37 10° NNW
